Hourly Weather Kozyna

Today, 1 November, Sunday

Time Temperature Precipitation Wind Pressure Humidity
00:00 +3°C° 0 mm 3 mps 742 mmHg 94%
01:00 +3°C° 0 mm 3 mps 743 mmHg 95%
02:00 +3°C° 0 mm 3 mps 743 mmHg 95%
03:00 +3°C° 0 mm 3 mps 743 mmHg 96%
04:00 +3°C° 0 mm 3 mps 742 mmHg 96%
05:00 +3°C° 0 mm 3 mps 742 mmHg 96%
06:00 +3°C° 0 mm 3 mps 742 mmHg 96%
07:00 +3°C° 0 mm 3 mps 742 mmHg 95%
08:00 +3°C° 0 mm 3 mps 742 mmHg 95%
09:00 +4°C° 0 mm 3 mps 742 mmHg 90%
10:00 +5°C° 0 mm 3 mps 742 mmHg 84%
11:00 +8°C° 0 mm 3 mps 742 mmHg 79%
12:00 +9°C° 0 mm 3 mps 741 mmHg 74%
13:00 +9°C° 0 mm 3 mps 741 mmHg 70%
14:00 +10°C° 0 mm 3 mps 741 mmHg 66%
15:00 +9°C° 0 mm 3 mps 741 mmHg 70%
16:00 +8°C° 0 mm 2 mps 740 mmHg 75%
17:00 +8°C° 0 mm 1 mps 740 mmHg 79%
18:00 +7°C° 0 mm 1 mps 740 mmHg 81%
19:00 +7°C° 0 mm 1 mps 740 mmHg 83%
20:00 +6°C° 0 mm 1 mps 740 mmHg 85%
21:00 +6°C° 0 mm 1 mps 740 mmHg 85%
22:00 +6°C° 0 mm 1 mps 740 mmHg 86%
23:00 +5°C° 0 mm 1 mps 740 mmHg 86%

Tomorrow, 2 November, Monday

Time Temperature Precipitation Wind Pressure Humidity
00:00 +5°C° 0 mm 1 mps 740 mmHg 85%
01:00 +5°C° 0 mm 1 mps 740 mmHg 85%
02:00 +5°C° 0 mm 1 mps 740 mmHg 84%
03:00 +5°C° 0 mm 1 mps 740 mmHg 83%
04:00 +5°C° 0 mm 1 mps 740 mmHg 81%
05:00 +5°C° 0 mm 1 mps 740 mmHg 80%
06:00 +5°C° 0 mm 1 mps 740 mmHg 78%
07:00 +6°C° 0 mm 1 mps 740 mmHg 77%
08:00 +6°C° 0 mm 1 mps 740 mmHg 75%
09:00 +7°C° 0.1 mm 1 mps 740 mmHg 75%
10:00 +7°C° 0.1 mm 1 mps 740 mmHg 76%
11:00 +8°C° 0.1 mm 1 mps 740 mmHg 76%
12:00 +8°C° 0.1 mm 1 mps 740 mmHg 77%
13:00 +9°C° 0.1 mm 1 mps 740 mmHg 78%
14:00 +9°C° 0.1 mm 1 mps 740 mmHg 79%
15:00 +9°C° 0.1 mm 1 mps 740 mmHg 81%
16:00 +9°C° 0.1 mm 1 mps 740 mmHg 83%
17:00 +9°C° 0.1 mm 1 mps 740 mmHg 84%
18:00 +9°C° 0.2 mm 1 mps 740 mmHg 86%
19:00 +9°C° 0.2 mm 1 mps 740 mmHg 87%
20:00 +9°C° 0.2 mm 1 mps 740 mmHg 89%
21:00 +9°C° 0.1 mm 1 mps 740 mmHg 88%
22:00 +10°C° 0.1 mm 1 mps 740 mmHg 88%
23:00 +10°C° 0.1 mm 1 mps 741 mmHg 88%

Day after tomorrow, 3 November, Tuesday

Time Temperature Precipitation Wind Pressure Humidity
00:00 +10°C° 0.1 mm 1 mps 741 mmHg 88%
01:00 +10°C° 0.1 mm 1 mps 741 mmHg 89%
02:00 +10°C° 0.1 mm 1 mps 741 mmHg 89%
03:00 +9°C° 0.3 mm 0 mps 741 mmHg 91%
04:00 +9°C° 0.3 mm 0 mps 741 mmHg 92%
05:00 +9°C° 0.3 mm 0 mps 740 mmHg 93%
06:00 +10°C° 0.1 mm 1 mps 741 mmHg 92%
07:00 +11°C° 0.1 mm 1 mps 741 mmHg 92%
08:00 +11°C° 0.1 mm 1 mps 741 mmHg 91%
09:00 +11°C° 0.5 mm 1 mps 741 mmHg 92%
10:00 +11°C° 0.5 mm 1 mps 741 mmHg 92%
11:00 +10°C° 0.5 mm 2 mps 741 mmHg 93%
12:00 +12°C° 0.5 mm 2 mps 741 mmHg 93%
13:00 +12°C° 0.5 mm 2 mps 741 mmHg 93%
14:00 +13°C° 0.5 mm 2 mps 741 mmHg 93%
15:00 +13°C° 0 mm 2 mps 741 mmHg 92%
16:00 +13°C° 0 mm 2 mps 742 mmHg 91%
17:00 +13°C° 0 mm 2 mps 742 mmHg 91%
18:00 +14°C° 0.2 mm 2 mps 742 mmHg 92%
19:00 +13°C° 0.2 mm 3 mps 742 mmHg 93%
20:00 +13°C° 0.2 mm 3 mps 743 mmHg 94%
21:00 +13°C° 0.1 mm 3 mps 743 mmHg 95%
22:00 +14°C° 0.1 mm 2 mps 743 mmHg 96%
23:00 +13°C° 0.1 mm 2 mps 743 mmHg 97%

4 November, Wednesday

Time Temperature Precipitation Wind Pressure Humidity
00:00 +13°C° 0.8 mm 2 mps 743 mmHg 97%
01:00 +13°C° 0.8 mm 2 mps 743 mmHg 97%
02:00 +13°C° 0.8 mm 3 mps 743 mmHg 98%
03:00 +12°C° 0.6 mm 3 mps 744 mmHg 96%
04:00 +12°C° 0.6 mm 4 mps 744 mmHg 95%
05:00 +11°C° 0.6 mm 4 mps 744 mmHg 94%
06:00 +11°C° 0.8 mm 4 mps 744 mmHg 93%
07:00 +10°C° 0.8 mm 4 mps 745 mmHg 92%
08:00 +10°C° 0.8 mm 4 mps 745 mmHg 92%
09:00 +10°C° 0.6 mm 3 mps 745 mmHg 91%
10:00 +10°C° 0.6 mm 3 mps 745 mmHg 90%
11:00 +10°C° 0.6 mm 3 mps 746 mmHg 89%
12:00 +10°C° 0.1 mm 3 mps 746 mmHg 88%
13:00 +10°C° 0.1 mm 2 mps 746 mmHg 88%
14:00 +10°C° 0.1 mm 2 mps 746 mmHg 87%
15:00 +10°C° 0 mm 2 mps 746 mmHg 88%
16:00 +10°C° 0 mm 2 mps 746 mmHg 89%
17:00 +11°C° 0 mm 1 mps 746 mmHg 89%
18:00 +11°C° 0 mm 1 mps 746 mmHg 90%
19:00 +11°C° 0 mm 1 mps 746 mmHg 91%
20:00 +10°C° 0 mm 1 mps 747 mmHg 91%
21:00 +10°C° 0 mm 1 mps 747 mmHg 92%
22:00 +10°C° 0 mm 1 mps 747 mmHg 93%
23:00 +10°C° 0 mm 1 mps 747 mmHg 94%

5 November, Thursday

Time Temperature Precipitation Wind Pressure Humidity
00:00 +10°C° 0 mm 1 mps 747 mmHg 94%
01:00 +10°C° 0 mm 1 mps 747 mmHg 95%
02:00 +10°C° 0 mm 1 mps 747 mmHg 95%
03:00 +10°C° 0 mm 1 mps 746 mmHg 95%
04:00 +10°C° 0 mm 1 mps 746 mmHg 95%
05:00 +9°C° 0 mm 2 mps 746 mmHg 95%
06:00 +9°C° 0 mm 2 mps 746 mmHg 95%
07:00 +9°C° 0 mm 2 mps 746 mmHg 94%
08:00 +10°C° 0 mm 2 mps 746 mmHg 94%
09:00 +11°C° 0.1 mm 1 mps 746 mmHg 94%
10:00 +11°C° 0.1 mm 1 mps 746 mmHg 93%
11:00 +11°C° 0.1 mm 1 mps 746 mmHg 93%
12:00 +11°C° 0.2 mm 1 mps 746 mmHg 93%
13:00 +10°C° 0.2 mm 2 mps 746 mmHg 93%
14:00 +10°C° 0.2 mm 2 mps 746 mmHg 93%
15:00 +10°C° 0.3 mm 2 mps 746 mmHg 93%
16:00 +10°C° 0.3 mm 3 mps 746 mmHg 94%
17:00 +8°C° 0.3 mm 4 mps 746 mmHg 94%
18:00 +8°C° 0.5 mm 4 mps 747 mmHg 93%
19:00 +7°C° 0.5 mm 4 mps 747 mmHg 93%
20:00 +7°C° 0.5 mm 4 mps 748 mmHg 92%
21:00 +7°C° 0.3 mm 4 mps 748 mmHg 92%
22:00 +7°C° 0.3 mm 4 mps 748 mmHg 91%
23:00 +7°C° 0.3 mm 3 mps 749 mmHg 91%

6 November, Friday

Time Temperature Precipitation Wind Pressure Humidity
00:00 +7°C° 0.1 mm 3 mps 749 mmHg 89%
01:00 +7°C° 0.1 mm 3 mps 749 mmHg 87%
02:00 +7°C° 0.1 mm 3 mps 749 mmHg 85%
03:00 +7°C° 0.1 mm 2 mps 749 mmHg 86%
04:00 +6°C° 0.1 mm 2 mps 749 mmHg 87%
05:00 +7°C° 0.1 mm 1 mps 749 mmHg 88%
06:00 +7°C° 0 mm 1 mps 750 mmHg 89%
07:00 +6°C° 0 mm 1 mps 750 mmHg 91%
08:00 +6°C° 0 mm 1 mps 750 mmHg 92%
09:00 +6°C° 0 mm 2 mps 751 mmHg 86%
10:00 +6°C° 0 mm 2 mps 751 mmHg 79%
11:00 +7°C° 0 mm 2 mps 751 mmHg 73%
12:00 +8°C° 0 mm 2 mps 751 mmHg 70%
13:00 +8°C° 0 mm 2 mps 751 mmHg 66%
14:00 +9°C° 0 mm 2 mps 750 mmHg 63%
15:00 +8°C° 0 mm 2 mps 750 mmHg 68%
16:00 +7°C° 0 mm 2 mps 750 mmHg 72%
17:00 +7°C° 0 mm 2 mps 750 mmHg 77%
18:00 +7°C° 0 mm 2 mps 751 mmHg 76%
19:00 +7°C° 0 mm 2 mps 751 mmHg 76%
20:00 +7°C° 0 mm 2 mps 751 mmHg 76%
21:00 +7°C° 0 mm 2 mps 751 mmHg 75%
22:00 +7°C° 0 mm 2 mps 751 mmHg 74%
23:00 +6°C° 0 mm 2 mps 751 mmHg 73%
Show more